owner,sensor,date,latitude,longitude,vertical_datum,wind_speed,wind_to_direction,wind_speed_of_gust,qcFlag 
FIT,ioos:station:wmo:SIPF1:1,2014-09-01T00:00:00Z,27.8620,-80.4450,1.0,5.1,144.0,99.0,'11111222,11111222,11144222' 
FIT,ioos:station:wmo:SIPF1:1,2014-09-01T00:15:00Z,27.8620,-80.4450,1.0,4.6,147.0,99.0,'11111222,11111222,11144222' 
FIT,ioos:station:wmo:SIPF1:1,2014-09-01T00:30:00Z,27.8620,-80.4450,1.0,4.4,147.0,99.0,'11111222,11111222,11144222' 
FIT,ioos:station:wmo:SIPF1:1,2014-09-01T00:45:00Z,27.8620,-80.4450,1.0,4.8,146.0,99.0,'11111222,11111222,11144222' 
FIT,ioos:station:wmo:SIPF1:1,2014-09-01T01:00:00Z,27.8620,-80.4450,1.0,5.4,141.0,99.0,'11111222,11111222,11144222' 
FIT,ioos:station:wmo:SIPF1:1,2014-09-01T01:15:00Z,27.8620,-80.4450,1.0,5.4,137.0,99.0,'11111222,11111222,11144222' 
FIT,ioos:station:wmo:SIPF1:1,2014-09-01T01:30:00Z,27.8620,-80.4450,1.0,6.0,140.0,99.0,'11111222,11111222,11144222' 
FIT,ioos:station:wmo:SIPF1:1,2014-09-01T01:45:00Z,27.8620,-80.4450,1.0,5.9,137.0,99.0,'11111222,11111222,11144222' 
FIT,ioos:station:wmo:SIPF1:1,2014-09-01T02:00:00Z,27.8620,-80.4450,1.0,5.3,143.0,99.0,'11111222,11111222,11144222' 
FIT,ioos:station:wmo:SIPF1:1,2014-09-01T02:15:00Z,27.8620,-80.4450,1.0,4.8,141.0,99.0,'11111222,11111222,11144222' 
FIT,ioos:station:wmo:SIPF1:1,2014-09-01T02:30:00Z,27.8620,-80.4450,1.0,4.8,152.0,99.0,'11111222,11111222,11144222' 
FIT,ioos:station:wmo:SIPF1:1,2014-09-01T02:45:00Z,27.8620,-80.4450,1.0,4.4,150.0,99.0,'11111222,11111222,11144222' 
FIT,ioos:station:wmo:SIPF1:1,2014-09-01T03:00:00Z,27.8620,-80.4450,1.0,4.5,138.0,99.0,'11111222,11111222,11144222' 
FIT,ioos:station:wmo:SIPF1:1,2014-09-01T03:15:00Z,27.8620,-80.4450,1.0,4.2,142.0,99.0,'11111222,11111222,11144222' 
FIT,ioos:station:wmo:SIPF1:1,2014-09-01T03:30:00Z,27.8620,-80.4450,1.0,3.9,147.0,99.0,'11111222,11111222,11144222' 
FIT,ioos:station:wmo:SIPF1:1,2014-09-01T03:45:00Z,27.8620,-80.4450,1.0,3.9,150.0,99.0,'11111222,11111222,11144222' 
FIT,ioos:station:wmo:SIPF1:1,2014-09-01T04:00:00Z,27.8620,-80.4450,1.0,3.7,147.0,99.0,'11111222,11111222,11144222' 
FIT,ioos:station:wmo:SIPF1:1,2014-09-01T04:15:00Z,27.8620,-80.4450,1.0,3.5,148.0,99.0,'11111222,11111222,11144222' 
FIT,ioos:station:wmo:SIPF1:1,2014-09-01T04:30:00Z,27.8620,-80.4450,1.0,3.5,151.0,99.0,'11111222,11111222,11144222' 
FIT,ioos:station:wmo:SIPF1:1,2014-09-01T04:45:00Z,27.8620,-80.4450,1.0,2.9,142.0,99.0,'11111222,11111222,11144222' 
FIT,ioos:station:wmo:SIPF1:1,2014-09-01T05:00:00Z,27.8620,-80.4450,1.0,2.3,134.0,99.0,'11111222,11111222,11144222' 
FIT,ioos:station:wmo:SIPF1:1,2014-09-01T05:15:00Z,27.8620,-80.4450,1.0,3.5,138.0,99.0,'11111222,11111222,11144222' 
FIT,ioos:station:wmo:SIPF1:1,2014-09-01T05:30:00Z,27.8620,-80.4450,1.0,4.1,137.0,99.0,'11111222,11111222,11144222' 
FIT,ioos:station:wmo:SIPF1:1,2014-09-01T05:45:00Z,27.8620,-80.4450,1.0,3.2,143.0,99.0,'11111222,11111222,11144222' 
FIT,ioos:station:wmo:SIPF1:1,2014-09-01T06:00:00Z,27.8620,-80.4450,1.0,2.8,144.0,99.0,'11111222,11111222,11144222' 
FIT,ioos:station:wmo:SIPF1:1,2014-09-01T06:15:00Z,27.8620,-80.4450,1.0,3.0,159.0,99.0,'11111222,11111222,11144222' 
FIT,ioos:station:wmo:SIPF1:1,2014-09-01T06:30:00Z,27.8620,-80.4450,1.0,3.2,152.0,99.0,'11111222,11111222,11144222' 
FIT,ioos:station:wmo:SIPF1:1,2014-09-01T06:45:00Z,27.8620,-80.4450,1.0,3.1,141.0,99.0,'11111222,11111222,11144222' 
FIT,ioos:station:wmo:SIPF1:1,2014-09-01T07:00:00Z,27.8620,-80.4450,1.0,2.8,131.0,99.0,'11111222,11111222,11144222' 
FIT,ioos:station:wmo:SIPF1:1,2014-09-01T07:15:00Z,27.8620,-80.4450,1.0,2.2,131.0,99.0,'11111222,11111222,11144222' 
FIT,ioos:station:wmo:SIPF1:1,2014-09-01T07:30:00Z,27.8620,-80.4450,1.0,1.0,167.0,99.0,'11111222,11111222,11144222' 
FIT,ioos:station:wmo:SIPF1:1,2014-09-01T07:45:00Z,27.8620,-80.4450,1.0,0.4,158.0,99.0,'11111222,11111222,11144222' 
FIT,ioos:station:wmo:SIPF1:1,2014-09-01T08:00:00Z,27.8620,-80.4450,1.0,0.4,166.0,99.0,'11111222,11111222,11144222' 
FIT,ioos:station:wmo:SIPF1:1,2014-09-01T08:15:00Z,27.8620,-80.4450,1.0,0.2,188.0,99.0,'11111222,11111222,11144222' 
FIT,ioos:station:wmo:SIPF1:1,2014-09-01T08:30:00Z,27.8620,-80.4450,1.0,1.4,162.0,99.0,'11111222,11111222,11144222' 
FIT,ioos:station:wmo:SIPF1:1,2014-09-01T08:45:00Z,27.8620,-80.4450,1.0,1.7,157.0,99.0,'11111222,11111222,11144222' 
FIT,ioos:station:wmo:SIPF1:1,2014-09-01T09:00:00Z,27.8620,-80.4450,1.0,2.0,160.0,99.0,'11111222,11111222,11144222' 
FIT,ioos:station:wmo:SIPF1:1,2014-09-01T09:15:00Z,27.8620,-80.4450,1.0,2.8,143.0,99.0,'11111222,11111222,11144222' 
FIT,ioos:station:wmo:SIPF1:1,2014-09-01T09:30:00Z,27.8620,-80.4450,1.0,4.0,122.0,99.0,'11111222,11111222,11144222' 
FIT,ioos:station:wmo:SIPF1:1,2014-09-01T09:45:00Z,27.8620,-80.4450,1.0,3.9,122.0,99.0,'11111222,11111222,11144222' 
FIT,ioos:station:wmo:SIPF1:1,2014-09-01T10:00:00Z,27.8620,-80.4450,1.0,3.8,117.0,99.0,'11111222,11111222,11144222' 
FIT,ioos:station:wmo:SIPF1:1,2014-09-01T10:15:00Z,27.8620,-80.4450,1.0,3.5,117.0,99.0,'11111222,11111222,11144222' 
FIT,ioos:station:wmo:SIPF1:1,2014-09-01T10:30:00Z,27.8620,-80.4450,1.0,3.4,114.0,99.0,'11111222,11111222,11144222' 
FIT,ioos:station:wmo:SIPF1:1,2014-09-01T10:45:00Z,27.8620,-80.4450,1.0,3.7,112.0,99.0,'11111222,11111222,11144222' 
FIT,ioos:station:wmo:SIPF1:1,2014-09-01T11:00:00Z,27.8620,-80.4450,1.0,3.7,110.0,99.0,'11111222,11111222,11144222' 
FIT,ioos:station:wmo:SIPF1:1,2014-09-01T11:15:00Z,27.8620,-80.4450,1.0,3.9,110.0,99.0,'11111222,11111222,11144222' 
FIT,ioos:station:wmo:SIPF1:1,2014-09-01T11:30:00Z,27.8620,-80.4450,1.0,4.3,112.0,99.0,'11111222,11111222,11144222' 
FIT,ioos:station:wmo:SIPF1:1,2014-09-01T11:45:00Z,27.8620,-80.4450,1.0,4.3,113.0,99.0,'11111222,11111222,11144222' 
FIT,ioos:station:wmo:SIPF1:1,2014-09-01T12:00:00Z,27.8620,-80.4450,1.0,4.0,118.0,99.0,'11111222,11111222,11144222' 
FIT,ioos:station:wmo:SIPF1:1,2014-09-01T12:15:00Z,27.8620,-80.4450,1.0,3.6,118.0,99.0,'11111222,11111222,11144222' 
FIT,ioos:station:wmo:SIPF1:1,2014-09-01T12:30:00Z,27.8620,-80.4450,1.0,3.3,110.0,99.0,'11111222,11111222,11144222' 
FIT,ioos:station:wmo:SIPF1:1,2014-09-01T12:45:00Z,27.8620,-80.4450,1.0,3.6,104.0,99.0,'11111222,11111222,11144222' 
FIT,ioos:station:wmo:SIPF1:1,2014-09-01T13:00:00Z,27.8620,-80.4450,1.0,3.4,104.0,99.0,'11111222,11111222,11144222' 
FIT,ioos:station:wmo:SIPF1:1,2014-09-01T13:15:00Z,27.8620,-80.4450,1.0,3.0,103.0,99.0,'11111222,11111222,11144222' 
FIT,ioos:station:wmo:SIPF1:1,2014-09-01T13:30:00Z,27.8620,-80.4450,1.0,2.6,110.0,99.0,'11111222,11111222,11144222' 
FIT,ioos:station:wmo:SIPF1:1,2014-09-01T13:45:00Z,27.8620,-80.4450,1.0,3.4,120.0,99.0,'11111222,11111222,11144222' 
FIT,ioos:station:wmo:SIPF1:1,2014-09-01T14:00:00Z,27.8620,-80.4450,1.0,3.2,119.0,99.0,'11111222,11111222,11144222' 
FIT,ioos:station:wmo:SIPF1:1,2014-09-01T14:15:00Z,27.8620,-80.4450,1.0,2.9,114.0,99.0,'11111222,11111222,11144222' 
FIT,ioos:station:wmo:SIPF1:1,2014-09-01T14:30:00Z,27.8620,-80.4450,1.0,2.8,122.0,99.0,'11111222,11111222,11144222' 
FIT,ioos:station:wmo:SIPF1:1,2014-09-01T14:45:00Z,27.8620,-80.4450,1.0,2.3,137.0,99.0,'11111222,11111222,11144222' 
FIT,ioos:station:wmo:SIPF1:1,2014-09-01T15:00:00Z,27.8620,-80.4450,1.0,2.6,130.0,99.0,'11111222,11111222,11144222' 
FIT,ioos:station:wmo:SIPF1:1,2014-09-01T15:15:00Z,27.8620,-80.4450,1.0,3.5,123.0,99.0,'11111222,11111222,11144222' 
FIT,ioos:station:wmo:SIPF1:1,2014-09-01T15:30:00Z,27.8620,-80.4450,1.0,2.4,113.0,99.0,'11111222,11111222,11144222' 
FIT,ioos:station:wmo:SIPF1:1,2014-09-01T15:45:00Z,27.8620,-80.4450,1.0,2.5,107.0,99.0,'11111222,11111222,11144222' 
FIT,ioos:station:wmo:SIPF1:1,2014-09-01T16:00:00Z,27.8620,-80.4450,1.0,2.9,110.0,99.0,'11111222,11111222,11144222' 
FIT,ioos:station:wmo:SIPF1:1,2014-09-01T16:15:00Z,27.8620,-80.4450,1.0,3.6,116.0,99.0,'11111222,11111222,11144222' 
FIT,ioos:station:wmo:SIPF1:1,2014-09-01T16:30:00Z,27.8620,-80.4450,1.0,3.6,79.0,99.0,'11111222,11111222,11144222' 
FIT,ioos:station:wmo:SIPF1:1,2014-09-01T16:45:00Z,27.8620,-80.4450,1.0,6.4,95.0,99.0,'11111222,11111222,11144222' 
FIT,ioos:station:wmo:SIPF1:1,2014-09-01T17:00:00Z,27.8620,-80.4450,1.0,6.6,105.0,99.0,'11111222,11111222,11144222' 
FIT,ioos:station:wmo:SIPF1:1,2014-09-01T17:15:00Z,27.8620,-80.4450,1.0,7.2,114.0,99.0,'11111222,11111222,11144222' 
FIT,ioos:station:wmo:SIPF1:1,2014-09-01T17:30:00Z,27.8620,-80.4450,1.0,6.2,103.0,99.0,'11111222,11111222,11144222' 
FIT,ioos:station:wmo:SIPF1:1,2014-09-01T17:45:00Z,27.8620,-80.4450,1.0,5.9,101.0,99.0,'11111222,11111222,11144222' 
FIT,ioos:station:wmo:SIPF1:1,2014-09-01T18:00:00Z,27.8620,-80.4450,1.0,5.7,101.0,99.0,'11111222,11111222,11144222' 
FIT,ioos:station:wmo:SIPF1:1,2014-09-01T18:15:00Z,27.8620,-80.4450,1.0,4.7,97.0,99.0,'11111222,11111222,11144222' 
FIT,ioos:station:wmo:SIPF1:1,2014-09-01T18:30:00Z,27.8620,-80.4450,1.0,4.1,93.0,99.0,'11111222,11111222,11144222' 
FIT,ioos:station:wmo:SIPF1:1,2014-09-01T18:45:00Z,27.8620,-80.4450,1.0,4.0,87.0,99.0,'11111222,11111222,11144222' 
FIT,ioos:station:wmo:SIPF1:1,2014-09-01T19:00:00Z,27.8620,-80.4450,1.0,4.2,96.0,99.0,'11111222,11111222,11144222' 
FIT,ioos:station:wmo:SIPF1:1,2014-09-01T19:15:00Z,27.8620,-80.4450,1.0,3.8,98.0,99.0,'11111222,11111222,11144222' 
FIT,ioos:station:wmo:SIPF1:1,2014-09-01T19:30:00Z,27.8620,-80.4450,1.0,3.9,102.0,99.0,'11111222,11111222,11144222' 
FIT,ioos:station:wmo:SIPF1:1,2014-09-01T19:45:00Z,27.8620,-80.4450,1.0,4.0,103.0,99.0,'11111222,11111222,11144222' 
FIT,ioos:station:wmo:SIPF1:1,2014-09-01T20:00:00Z,27.8620,-80.4450,1.0,4.1,106.0,99.0,'11111222,11111222,11144222' 
FIT,ioos:station:wmo:SIPF1:1,2014-09-01T20:15:00Z,27.8620,-80.4450,1.0,3.7,106.0,99.0,'11111222,11111222,11144222' 
FIT,ioos:station:wmo:SIPF1:1,2014-09-01T20:30:00Z,27.8620,-80.4450,1.0,3.7,111.0,99.0,'11111222,11111222,11144222' 
FIT,ioos:station:wmo:SIPF1:1,2014-09-01T20:45:00Z,27.8620,-80.4450,1.0,4.5,103.0,99.0,'11111222,11111222,11144222' 
FIT,ioos:station:wmo:SIPF1:1,2014-09-01T21:00:00Z,27.8620,-80.4450,1.0,4.5,100.0,99.0,'11111222,11111222,11144222' 
FIT,ioos:station:wmo:SIPF1:1,2014-09-01T21:15:00Z,27.8620,-80.4450,1.0,4.4,100.0,99.0,'11111222,11111222,11144222' 
FIT,ioos:station:wmo:SIPF1:1,2014-09-01T21:30:00Z,27.8620,-80.4450,1.0,4.5,103.0,99.0,'11111222,11111222,11144222' 
FIT,ioos:station:wmo:SIPF1:1,2014-09-01T21:45:00Z,27.8620,-80.4450,1.0,4.3,102.0,99.0,'11111222,11111222,11144222' 
FIT,ioos:station:wmo:SIPF1:1,2014-09-01T22:00:00Z,27.8620,-80.4450,1.0,4.1,104.0,99.0,'11111222,11111222,11144222' 
FIT,ioos:station:wmo:SIPF1:1,2014-09-01T22:15:00Z,27.8620,-80.4450,1.0,4.3,103.0,99.0,'11111222,11111222,11144222' 
FIT,ioos:station:wmo:SIPF1:1,2014-09-01T22:30:00Z,27.8620,-80.4450,1.0,4.9,107.0,99.0,'11111222,11111222,11144222' 
FIT,ioos:station:wmo:SIPF1:1,2014-09-01T22:45:00Z,27.8620,-80.4450,1.0,4.4,111.0,99.0,'11111222,11111222,11144222' 
FIT,ioos:station:wmo:SIPF1:1,2014-09-01T23:00:00Z,27.8620,-80.4450,1.0,4.4,122.0,99.0,'11111222,11111222,11144222' 
FIT,ioos:station:wmo:SIPF1:1,2014-09-01T23:15:00Z,27.8620,-80.4450,1.0,4.3,120.0,99.0,'11111222,11111222,11144222' 
FIT,ioos:station:wmo:SIPF1:1,2014-09-01T23:30:00Z,27.8620,-80.4450,1.0,4.4,126.0,99.0,'11111222,11111222,11144222' 
FIT,ioos:station:wmo:SIPF1:1,2014-09-01T23:45:00Z,27.8620,-80.4450,1.0,4.8,126.0,99.0,'11111222,11111222,11144222' 
FIT,ioos:station:wmo:SIPF1:1,2014-09-02T00:00:00Z,27.8620,-80.4450,1.0,4.4,132.0,99.0,'11111222,11111222,11144222' 
FIT,ioos:station:wmo:SIPF1:1,2014-09-02T00:15:00Z,27.8620,-80.4450,1.0,4.3,130.0,99.0,'11111222,11111222,11144222' 
FIT,ioos:station:wmo:SIPF1:1,2014-09-02T00:30:00Z,27.8620,-80.4450,1.0,4.5,124.0,99.0,'11111222,11111222,11144222' 
FIT,ioos:station:wmo:SIPF1:1,2014-09-02T00:45:00Z,27.8620,-80.4450,1.0,4.5,126.0,99.0,'11111222,11111222,11144222' 
FIT,ioos:station:wmo:SIPF1:1,2014-09-02T01:00:00Z,27.8620,-80.4450,1.0,4.2,124.0,99.0,'11111222,11111222,11144222' 
FIT,ioos:station:wmo:SIPF1:1,2014-09-02T01:15:00Z,27.8620,-80.4450,1.0,4.4,123.0,99.0,'11111222,11111222,11144222' 
FIT,ioos:station:wmo:SIPF1:1,2014-09-02T01:30:00Z,27.8620,-80.4450,1.0,4.3,118.0,99.0,'11111222,11111222,11144222' 
FIT,ioos:station:wmo:SIPF1:1,2014-09-02T01:45:00Z,27.8620,-80.4450,1.0,4.0,123.0,99.0,'11111222,11111222,11144222' 
FIT,ioos:station:wmo:SIPF1:1,2014-09-02T02:00:00Z,27.8620,-80.4450,1.0,4.1,127.0,99.0,'11111222,11111222,11144222' 
FIT,ioos:station:wmo:SIPF1:1,2014-09-02T02:15:00Z,27.8620,-80.4450,1.0,4.7,118.0,99.0,'11111222,11111222,11144222' 
FIT,ioos:station:wmo:SIPF1:1,2014-09-02T02:30:00Z,27.8620,-80.4450,1.0,4.7,114.0,99.0,'11111222,11111222,11144222' 
FIT,ioos:station:wmo:SIPF1:1,2014-09-02T02:45:00Z,27.8620,-80.4450,1.0,5.2,116.0,99.0,'11111222,11111222,11144222' 
FIT,ioos:station:wmo:SIPF1:1,2014-09-02T03:00:00Z,27.8620,-80.4450,1.0,4.9,111.0,99.0,'11111222,11111222,11144222' 
FIT,ioos:station:wmo:SIPF1:1,2014-09-02T03:15:00Z,27.8620,-80.4450,1.0,4.6,109.0,99.0,'11111222,11111222,11144222' 
FIT,ioos:station:wmo:SIPF1:1,2014-09-02T03:30:00Z,27.8620,-80.4450,1.0,4.2,114.0,99.0,'11111222,11111222,11144222' 
FIT,ioos:station:wmo:SIPF1:1,2014-09-02T03:45:00Z,27.8620,-80.4450,1.0,4.2,120.0,99.0,'11111222,11111222,11144222' 
FIT,ioos:station:wmo:SIPF1:1,2014-09-02T04:00:00Z,27.8620,-80.4450,1.0,4.3,119.0,99.0,'11111222,11111222,11144222' 
FIT,ioos:station:wmo:SIPF1:1,2014-09-02T04:15:00Z,27.8620,-80.4450,1.0,4.8,121.0,99.0,'11111222,11111222,11144222' 
FIT,ioos:station:wmo:SIPF1:1,2014-09-02T04:30:00Z,27.8620,-80.4450,1.0,5.0,114.0,99.0,'11111222,11111222,11144222' 
FIT,ioos:station:wmo:SIPF1:1,2014-09-02T04:45:00Z,27.8620,-80.4450,1.0,5.0,121.0,99.0,'11111222,11111222,11144222' 
FIT,ioos:station:wmo:SIPF1:1,2014-09-02T05:00:00Z,27.8620,-80.4450,1.0,4.6,131.0,99.0,'11111222,11111222,11144222' 
FIT,ioos:station:wmo:SIPF1:1,2014-09-02T05:15:00Z,27.8620,-80.4450,1.0,4.5,125.0,99.0,'11111222,11111222,11144222' 
FIT,ioos:station:wmo:SIPF1:1,2014-09-02T05:30:00Z,27.8620,-80.4450,1.0,4.4,125.0,99.0,'11111222,11111222,11144222' 
FIT,ioos:station:wmo:SIPF1:1,2014-09-02T05:45:00Z,27.8620,-80.4450,1.0,4.2,122.0,99.0,'11111222,11111222,11144222' 
FIT,ioos:station:wmo:SIPF1:1,2014-09-02T06:00:00Z,27.8620,-80.4450,1.0,4.4,130.0,99.0,'11111222,11111222,11144222' 
FIT,ioos:station:wmo:SIPF1:1,2014-09-02T06:15:00Z,27.8620,-80.4450,1.0,4.2,132.0,99.0,'11111222,11111222,11144222' 
FIT,ioos:station:wmo:SIPF1:1,2014-09-02T06:30:00Z,27.8620,-80.4450,1.0,3.9,126.0,99.0,'11111222,11111222,11144222' 
FIT,ioos:station:wmo:SIPF1:1,2014-09-02T06:45:00Z,27.8620,-80.4450,1.0,3.8,122.0,99.0,'11111222,11111222,11144222' 
FIT,ioos:station:wmo:SIPF1:1,2014-09-02T07:00:00Z,27.8620,-80.4450,1.0,3.5,126.0,99.0,'11111222,11111222,11144222' 
FIT,ioos:station:wmo:SIPF1:1,2014-09-02T07:15:00Z,27.8620,-80.4450,1.0,4.0,126.0,99.0,'11111222,11111222,11144222' 
FIT,ioos:station:wmo:SIPF1:1,2014-09-02T07:30:00Z,27.8620,-80.4450,1.0,3.5,134.0,99.0,'11111222,11111222,11144222' 
FIT,ioos:station:wmo:SIPF1:1,2014-09-02T07:45:00Z,27.8620,-80.4450,1.0,3.1,144.0,99.0,'11111222,11111222,11144222' 
FIT,ioos:station:wmo:SIPF1:1,2014-09-02T08:00:00Z,27.8620,-80.4450,1.0,3.2,147.0,99.0,'11111222,11111222,11144222' 
FIT,ioos:station:wmo:SIPF1:1,2014-09-02T08:15:00Z,27.8620,-80.4450,1.0,3.3,150.0,99.0,'11111222,11111222,11144222' 
FIT,ioos:station:wmo:SIPF1:1,2014-09-02T08:30:00Z,27.8620,-80.4450,1.0,3.0,163.0,99.0,'11111222,11111222,11144222' 
FIT,ioos:station:wmo:SIPF1:1,2014-09-02T08:45:00Z,27.8620,-80.4450,1.0,2.0,240.0,99.0,'11111222,11111222,11144222' 
FIT,ioos:station:wmo:SIPF1:1,2014-09-02T09:00:00Z,27.8620,-80.4450,1.0,1.9,265.0,99.0,'11111222,11111222,11144222' 
FIT,ioos:station:wmo:SIPF1:1,2014-09-02T09:15:00Z,27.8620,-80.4450,1.0,1.9,270.0,99.0,'11111222,11111222,11144222' 
FIT,ioos:station:wmo:SIPF1:1,2014-09-02T09:30:00Z,27.8620,-80.4450,1.0,2.2,277.0,99.0,'11111222,11111222,11144222' 
FIT,ioos:station:wmo:SIPF1:1,2014-09-02T09:45:00Z,27.8620,-80.4450,1.0,2.0,278.0,99.0,'11111222,11111222,11144222' 
FIT,ioos:station:wmo:SIPF1:1,2014-09-02T10:00:00Z,27.8620,-80.4450,1.0,2.2,277.0,99.0,'11111222,11111222,11144222' 
FIT,ioos:station:wmo:SIPF1:1,2014-09-02T10:15:00Z,27.8620,-80.4450,1.0,1.3,282.0,99.0,'11111222,11111222,11144222' 
FIT,ioos:station:wmo:SIPF1:1,2014-09-02T10:30:00Z,27.8620,-80.4450,1.0,1.1,280.0,99.0,'11111222,11111222,11144222' 
FIT,ioos:station:wmo:SIPF1:1,2014-09-02T10:45:00Z,27.8620,-80.4450,1.0,1.4,280.0,99.0,'11111222,11111222,11144222' 
FIT,ioos:station:wmo:SIPF1:1,2014-09-02T11:00:00Z,27.8620,-80.4450,1.0,1.9,277.0,99.0,'11111222,11111222,11144222' 
FIT,ioos:station:wmo:SIPF1:1,2014-09-02T11:15:00Z,27.8620,-80.4450,1.0,1.7,299.0,99.0,'11111222,11111222,11144222' 
FIT,ioos:station:wmo:SIPF1:1,2014-09-02T11:30:00Z,27.8620,-80.4450,1.0,1.9,303.0,99.0,'11111222,11111222,11144222' 
FIT,ioos:station:wmo:SIPF1:1,2014-09-02T11:45:00Z,27.8620,-80.4450,1.0,2.0,316.0,99.0,'11111222,11111222,11144222' 
FIT,ioos:station:wmo:SIPF1:1,2014-09-02T12:00:00Z,27.8620,-80.4450,1.0,2.2,324.0,99.0,'11111222,11111222,11144222' 
FIT,ioos:station:wmo:SIPF1:1,2014-09-02T12:15:00Z,27.8620,-80.4450,1.0,2.4,333.0,99.0,'11111222,11111222,11144222' 
FIT,ioos:station:wmo:SIPF1:1,2014-09-02T12:30:00Z,27.8620,-80.4450,1.0,2.7,339.0,99.0,'11111222,11111222,11144222' 
FIT,ioos:station:wmo:SIPF1:1,2014-09-02T12:45:00Z,27.8620,-80.4450,1.0,2.7,348.0,99.0,'11111222,11111222,11144222' 
FIT,ioos:station:wmo:SIPF1:1,2014-09-02T13:00:00Z,27.8620,-80.4450,1.0,2.5,349.0,99.0,'11111222,11111222,11144222' 
FIT,ioos:station:wmo:SIPF1:1,2014-09-02T13:15:00Z,27.8620,-80.4450,1.0,2.3,349.0,99.0,'11111222,11111222,11144222' 
FIT,ioos:station:wmo:SIPF1:1,2014-09-02T13:30:00Z,27.8620,-80.4450,1.0,2.3,348.0,99.0,'11111222,11111222,11144222' 
FIT,ioos:station:wmo:SIPF1:1,2014-09-02T13:45:00Z,27.8620,-80.4450,1.0,2.1,358.0,99.0,'11111222,11111222,11144222' 
FIT,ioos:station:wmo:SIPF1:1,2014-09-02T14:00:00Z,27.8620,-80.4450,1.0,2.4,3.0,99.0,'11111222,11111222,11144222' 
FIT,ioos:station:wmo:SIPF1:1,2014-09-02T14:15:00Z,27.8620,-80.4450,1.0,2.5,10.0,99.0,'11111222,11111222,11144222' 
FIT,ioos:station:wmo:SIPF1:1,2014-09-02T14:30:00Z,27.8620,-80.4450,1.0,2.5,5.0,99.0,'11111222,11111222,11144222' 
FIT,ioos:station:wmo:SIPF1:1,2014-09-02T14:45:00Z,27.8620,-80.4450,1.0,2.4,4.0,99.0,'11111222,11111222,11144222' 
FIT,ioos:station:wmo:SIPF1:1,2014-09-02T15:00:00Z,27.8620,-80.4450,1.0,2.9,360.0,99.0,'11111222,11144222,11144222' 
FIT,ioos:station:wmo:SIPF1:1,2014-09-02T15:15:00Z,27.8620,-80.4450,1.0,2.9,358.0,99.0,'11111222,11111222,11144222' 
FIT,ioos:station:wmo:SIPF1:1,2014-09-02T15:30:00Z,27.8620,-80.4450,1.0,2.5,1.0,99.0,'11111222,11111222,11144222' 
FIT,ioos:station:wmo:SIPF1:1,2014-09-02T15:45:00Z,27.8620,-80.4450,1.0,2.7,5.0,99.0,'11111222,11111222,11144222' 
FIT,ioos:station:wmo:SIPF1:1,2014-09-02T16:00:00Z,27.8620,-80.4450,1.0,2.3,22.0,99.0,'11111222,11111222,11144222' 
FIT,ioos:station:wmo:SIPF1:1,2014-09-02T16:15:00Z,27.8620,-80.4450,1.0,1.5,23.0,99.0,'11111222,11111222,11144222' 
FIT,ioos:station:wmo:SIPF1:1,2014-09-02T16:30:00Z,27.8620,-80.4450,1.0,2.6,75.0,99.0,'11111222,11111222,11144222' 
FIT,ioos:station:wmo:SIPF1:1,2014-09-02T16:45:00Z,27.8620,-80.4450,1.0,2.9,93.0,99.0,'11111222,11111222,11144222' 
FIT,ioos:station:wmo:SIPF1:1,2014-09-02T17:00:00Z,27.8620,-80.4450,1.0,3.4,86.0,99.0,'11111222,11111222,11144222' 
FIT,ioos:station:wmo:SIPF1:1,2014-09-02T17:15:00Z,27.8620,-80.4450,1.0,3.2,80.0,99.0,'11111222,11111222,11144222' 
FIT,ioos:station:wmo:SIPF1:1,2014-09-02T17:30:00Z,27.8620,-80.4450,1.0,3.5,88.0,99.0,'11111222,11111222,11144222' 
FIT,ioos:station:wmo:SIPF1:1,2014-09-02T17:45:00Z,27.8620,-80.4450,1.0,3.6,87.0,99.0,'11111222,11111222,11144222' 
FIT,ioos:station:wmo:SIPF1:1,2014-09-02T18:00:00Z,27.8620,-80.4450,1.0,4.0,90.0,99.0,'11111222,11111222,11144222' 
FIT,ioos:station:wmo:SIPF1:1,2014-09-02T18:15:00Z,27.8620,-80.4450,1.0,4.1,89.0,99.0,'11111222,11111222,11144222' 
FIT,ioos:station:wmo:SIPF1:1,2014-09-02T18:30:00Z,27.8620,-80.4450,1.0,4.6,88.0,99.0,'11111222,11111222,11144222' 
FIT,ioos:station:wmo:SIPF1:1,2014-09-02T18:45:00Z,27.8620,-80.4450,1.0,4.8,84.0,99.0,'11111222,11111222,11144222' 
FIT,ioos:station:wmo:SIPF1:1,2014-09-02T19:00:00Z,27.8620,-80.4450,1.0,4.8,83.0,99.0,'11111222,11111222,11144222' 
FIT,ioos:station:wmo:SIPF1:1,2014-09-02T19:15:00Z,27.8620,-80.4450,1.0,5.2,87.0,99.0,'11111222,11111222,11144222' 
FIT,ioos:station:wmo:SIPF1:1,2014-09-02T19:30:00Z,27.8620,-80.4450,1.0,5.2,87.0,99.0,'11111222,11111222,11144222' 
FIT,ioos:station:wmo:SIPF1:1,2014-09-02T19:45:00Z,27.8620,-80.4450,1.0,5.3,90.0,99.0,'11111222,11111222,11144222' 
FIT,ioos:station:wmo:SIPF1:1,2014-09-02T20:00:00Z,27.8620,-80.4450,1.0,5.4,92.0,99.0,'11111222,11111222,11144222' 
FIT,ioos:station:wmo:SIPF1:1,2014-09-02T20:15:00Z,27.8620,-80.4450,1.0,5.6,92.0,99.0,'11111222,11111222,11144222' 
FIT,ioos:station:wmo:SIPF1:1,2014-09-02T20:30:00Z,27.8620,-80.4450,1.0,5.7,96.0,99.0,'11111222,11111222,11144222' 
FIT,ioos:station:wmo:SIPF1:1,2014-09-02T20:45:00Z,27.8620,-80.4450,1.0,5.7,98.0,99.0,'11111222,11111222,11144222' 
FIT,ioos:station:wmo:SIPF1:1,2014-09-02T21:00:00Z,27.8620,-80.4450,1.0,6.2,103.0,99.0,'11111222,11111222,11144222' 
FIT,ioos:station:wmo:SIPF1:1,2014-09-02T21:15:00Z,27.8620,-80.4450,1.0,6.1,107.0,99.0,'11111222,11111222,11144222' 
FIT,ioos:station:wmo:SIPF1:1,2014-09-02T21:30:00Z,27.8620,-80.4450,1.0,6.8,120.0,99.0,'11111222,11111222,11144222' 
FIT,ioos:station:wmo:SIPF1:1,2014-09-02T21:45:00Z,27.8620,-80.4450,1.0,6.7,116.0,99.0,'11111222,11111222,11144222' 
FIT,ioos:station:wmo:SIPF1:1,2014-09-02T22:00:00Z,27.8620,-80.4450,1.0,7.0,114.0,99.0,'11111222,11111222,11144222' 
FIT,ioos:station:wmo:SIPF1:1,2014-09-02T22:15:00Z,27.8620,-80.4450,1.0,7.0,117.0,99.0,'11111222,11111222,11144222' 
FIT,ioos:station:wmo:SIPF1:1,2014-09-02T22:30:00Z,27.8620,-80.4450,1.0,6.6,116.0,99.0,'11111222,11111222,11144222' 
FIT,ioos:station:wmo:SIPF1:1,2014-09-02T22:45:00Z,27.8620,-80.4450,1.0,6.6,120.0,99.0,'11111222,11111222,11144222' 
FIT,ioos:station:wmo:SIPF1:1,2014-09-02T23:00:00Z,27.8620,-80.4450,1.0,6.2,119.0,99.0,'11111222,11111222,11144222' 
FIT,ioos:station:wmo:SIPF1:1,2014-09-02T23:15:00Z,27.8620,-80.4450,1.0,5.4,121.0,99.0,'11111222,11111222,11144222' 
FIT,ioos:station:wmo:SIPF1:1,2014-09-02T23:30:00Z,27.8620,-80.4450,1.0,5.7,119.0,99.0,'11111222,11111222,11144222' 
FIT,ioos:station:wmo:SIPF1:1,2014-09-02T23:45:00Z,27.8620,-80.4450,1.0,6.5,122.0,99.0,'11111222,11111222,11144222' 
FIT,ioos:station:wmo:SIPF1:1,2014-09-03T00:00:00Z,27.8620,-80.4450,1.0,6.5,126.0,99.0,'11111222,11111222,11144222' 
FIT,ioos:station:wmo:SIPF1:1,2014-09-03T00:15:00Z,27.8620,-80.4450,1.0,6.2,124.0,99.0,'11111222,11111222,11144222' 
FIT,ioos:station:wmo:SIPF1:1,2014-09-03T00:30:00Z,27.8620,-80.4450,1.0,6.8,125.0,99.0,'11111222,11111222,11144222' 
FIT,ioos:station:wmo:SIPF1:1,2014-09-03T00:45:00Z,27.8620,-80.4450,1.0,6.7,124.0,99.0,'11111222,11111222,11144222' 
FIT,ioos:station:wmo:SIPF1:1,2014-09-03T01:00:00Z,27.8620,-80.4450,1.0,5.9,122.0,99.0,'11111222,11111222,11144222' 
FIT,ioos:station:wmo:SIPF1:1,2014-09-03T01:15:00Z,27.8620,-80.4450,1.0,6.1,126.0,99.0,'11111222,11111222,11144222' 
FIT,ioos:station:wmo:SIPF1:1,2014-09-03T01:30:00Z,27.8620,-80.4450,1.0,6.3,134.0,99.0,'11111222,11111222,11144222' 
FIT,ioos:station:wmo:SIPF1:1,2014-09-03T01:45:00Z,27.8620,-80.4450,1.0,6.3,136.0,99.0,'11111222,11111222,11144222' 
FIT,ioos:station:wmo:SIPF1:1,2014-09-03T02:00:00Z,27.8620,-80.4450,1.0,6.3,137.0,99.0,'11111222,11111222,11144222' 
FIT,ioos:station:wmo:SIPF1:1,2014-09-03T02:15:00Z,27.8620,-80.4450,1.0,6.6,138.0,99.0,'11111222,11111222,11144222' 
FIT,ioos:station:wmo:SIPF1:1,2014-09-03T02:30:00Z,27.8620,-80.4450,1.0,6.7,144.0,99.0,'11111222,11111222,11144222' 
FIT,ioos:station:wmo:SIPF1:1,2014-09-03T02:45:00Z,27.8620,-80.4450,1.0,6.8,147.0,99.0,'11111222,11111222,11144222' 
FIT,ioos:station:wmo:SIPF1:1,2014-09-03T03:00:00Z,27.8620,-80.4450,1.0,7.2,153.0,99.0,'11111222,11111222,11144222' 
FIT,ioos:station:wmo:SIPF1:1,2014-09-03T03:15:00Z,27.8620,-80.4450,1.0,7.4,152.0,99.0,'11111222,11111222,11144222' 